Location: Bazugues
(43.4465°N, 0.3432°E)
Time: 15:43:37
(UTC+00:00)

Cosmos 1633 Rocket - Pass Details

Date: 12 January 2026
Orbit: 600 x 616 km, 82.5° (Epoch: 17 February)

Event Time Altitude Azimuth Distance (km) Brightness Sun altitude
Rises 18:17:46 0° 345° (NNW) 2,860 6.5 -16.5°
Reaches altitude 10° 18:20:02 10° 340° (NNW) 1,951 5.7 -16.9°
Maximum altitude 18:24:10 47° 267° (W) 802 4.1 -17.6°
Drops below altitude 10° 18:28:16 10° 194° (SSW) 1,936 5.9 -18.4°
Sets 18:30:31 0° 188° (S) 2,835 6.7 -18.8°
